TIME,DELAY(SENSOR),PRES,OXYGEN,RAWTEMP,T(OPTODE),TCPHASE,FLUOR,BETA(BETA700),BETA(BETA412),BETA(BETA440),CDOM,C(CSC),ED(ED412.20),ED(ED444.00),ED(ED489.60),ED(ED554.30),LU(LU412.10),LU(LU443.90),LU(LU489.70),LU(LU554.70),COMP,TILTX,TILTY,CHECK
1361846956,5811,867.6900024414062000,33.7308998107910160,560.5725708007812000,4.4681468009948730,56.4896087646484400,56,99,100,79,82,15531,0,0,0,0,2147121718,2147772370,2147577517,2147569033,3230,2,13,3364
1361850552,5811,945.5399780273438000,40.5765914916992200,567.7871704101562000,4.2443032264709470,55.5052413940429700,55,98,100,77,81,15528,0,0,0,0,2147123044,2147775140,2147576365,2147567424,343,2,13,47231
1361854152,5808,960.7299804687500000,40.8338508605957000,568.7817993164062000,4.2134108543396000,55.4810485839843750,54,97,100,78,81,15525,0,0,0,0,2147121682,2147774875,2147582628,2147567872,3375,3,13,16907
1361857752,5807,986.4000244140625000,42.2438507080078100,570.9907226562500000,4.1447720527648930,55.2933006286621100,55,98,100,78,82,15527,0,0,0,0,2147120512,2147777344,2147574043,2147565129,3431,2,13,45786
1361861352,5809,988.5399780273438000,42.0344810485839840,571.0960083007812000,4.1414971351623535,55.3240203857421900,54,99,100,78,81,15525,0,0,0,0,2147120027,2147770322,2147571346,2147567515,116,2,13,29633
1361864952,5809,989.8800048828125000,42.5013084411621100,572.4108886718750000,4.1006150245666500,55.2703704833984400,56,99,101,79,83,15526,0,0,0,0,2147123328,2147767140,2147579318,2147567561,3552,2,13,54453
1361868552,5807,998.7500000000000000,42.0693893432617200,571.2429199218750000,4.1369299888610840,55.3208007812500000,54,99,100,78,82,15520,0,0,0,0,2147123949,2147778898,2147576603,2147569371,134,2,13,28299
1361872152,5812,1005.5800170898438000,41.6355400085449200,570.7980957031250000,4.1507568359375000,55.3839492797851560,55,99,100,78,81,15522,0,0,0,0,2147118948,2147770541,2147576018,2147571236,28,2,13,62098
1361875752,5812,1002.1300048828125000,41.8906784057617200,571.3430786132812000,4.1338157653808590,55.3549880981445300,55,99,100,77,81,15523,0,0,0,0,2147122496,2147774601,2147574299,2147568009,321,3,13,45794
1361879352,5811,997.5700073242188000,41.6699981689453100,571.7307128906250000,4.1217670440673830,55.3886299133300800,54,98,99,78,81,15509,0,0,0,0,2147119158,2147776018,2147576704,2147569307,14,2,13,9562
1361882952,5810,992.8599853515625000,42.9411811828613300,572.8884887695312000,4.0857639312744140,55.2119293212890600,55,99,100,78,82,15523,0,0,0,0,2147122486,2147773312,2147578267,2147566683,449,2,13,32263
1361886552,5809,996.5700073242188000,43.0439682006835940,572.8322753906250000,4.0875110626220700,55.2011909484863300,54,98,100,78,83,15525,0,0,0,0,2147120027,2147776329,2147577051,2147568969,295,2,13,46689
1361890152,5808,998.2000122070312000,42.1838684082031250,572.5280151367188000,4.0969748497009280,55.3214988708496100,55,98,100,78,82,15526,0,0,0,0,2147120731,2147777938,2147574912,2147566509,644,2,13,18614
1361893752,5811,991.8200073242188000,41.7921600341796900,572.6414794921875000,4.0934448242187500,55.3765716552734400,55,99,100,78,82,15524,0,0,0,0,2147123209,2147772178,2147572160,2147566180,229,2,13,63105
1361897352,5809,1004.7600097656250000,42.5560989379882800,572.6043701171875000,4.0946011543273930,55.2654914855957000,55,98,100,78,81,15525,0,0,0,0,2147125065,2147771931,2147572882,2147567186,371,2,13,26191
1361900952,5809,1004.3499755859375000,41.7275810241699200,571.6068115234375000,4.1256179809570310,55.3786506652832000,54,97,100,78,82,15523,0,0,0,0,2147119862,2147769106,2147575524,2147564763,266,2,13,42119
1361904552,5811,1000.4699707031250000,41.6942787170410160,572.7473144531250000,4.0901570320129395,55.3968582153320300,54,98,100,77,81,15524,0,0,0,0,2147120173,2147772992,2147571638,2147565339,180,2,13,39682
1361908152,5810,998.4699707031250000,42.9752502441406250,573.2791137695312000,4.0736179351806640,55.2114715576171900,55,99,100,78,81,15521,0,0,0,0,2147127661,2147774308,2147570221,2147569060,232,2,13,10061
1361911752,5810,994.5300292968750000,43.1270790100097660,573.6903076171875000,4.0608248710632320,55.1932716369628900,55,97,99,78,82,15524,0,0,0,0,2147123474,2147774793,2147572726,2147565805,101,3,13,47907
1361915352,5810,1000.1099853515625000,43.5422515869140600,573.5488891601562000,4.0652241706848145,55.1334190368652340,54,97,103,79,82,15519,0,0,0,0,2147123008,2147768027,2147575030,2147566390,3489,2,13,10417
1361918952,5810,1008.8099975585938000,42.5130882263183600,572.2955932617188000,4.1042017936706540,55.2709007263183600,56,98,100,77,83,15517,0,0,0,0,2147121837,2147773037,2147579995,2147564672,385,2,13,26608
1361922552,5754,1003.5000000000000000,41.7697906494140600,572.5817260742188000,4.0953040122985840,55.3795509338378900,54,98,99,79,80,15519,0,0,0,0,2147125019,2147774427,2147578496,2147564900,3576,3,13,17800
1361926152,5810,1005.4400024414062000,42.0159111022949200,571.7396240234375000,4.1214890480041500,55.3337516784668000,55,100,99,78,82,15518,0,0,0,0,2147125458,2147773723,2147579958,2147567533,3544,2,13,35745
1361929752,5809,1015.3200073242188000,42.1105804443359400,571.4653930664062000,4.1300139427185060,55.3222007751464840,53,98,98,77,81,15516,0,0,0,0,2147125970,2147771373,2147576018,2147566290,167,2,13,33022
1361933352,5810,1013.3400268554688000,41.6568603515625000,571.1022949218750000,4.1413002014160160,55.3834991455078100,55,97,100,78,81,15519,0,0,0,0,2147120749,2147768576,2147576886,2147562816,191,2,13,1531
1361936952,5810,1008.4000244140625000,41.7733306884765600,571.9702758789062000,4.1143150329589840,55.3783302307128900,55,96,99,77,82,15519,0,0,0,0,2147123913,2147779117,2147576228,2147565001,3548,2,13,15538
1361940552,5808,1005.6699829101562000,42.0207710266113300,571.8248291015625000,4.1188411712646480,55.3345108032226560,55,99,99,78,81,15519,0,0,0,0,2147123465,2147771748,2147576557,2147566628,355,3,13,40568
1361944152,5812,1003.2899780273438000,41.7744903564453100,572.3806152343750000,4.1015591621398930,55.3801383972168000,55,99,99,79,83,15518,0,0,0,0,2147121993,2147770331,2147576045,2147566957,10,2,13,28104
1361947752,5810,1004.0200195312500000,41.8427505493164060,572.7864990234375000,4.0889358520507810,55.3749618530273440,55,98,99,78,82,15515,0,0,0,0,2147123200,2147772150,2147576905,2147566491,111,3,13,25054
1361951352,5810,1004.7700195312500000,42.6102485656738300,572.6660156250000000,4.0926837921142580,55.2620201110839840,54,97,99,78,82,15518,0,0,0,0,2147122331,2147778459,2147574820,2147565129,3385,2,13,54761
1361954952,5811,1000.3200073242188000,42.0904617309570300,572.7291870117188000,4.0907168388366700,55.3335990905761700,55,100,100,78,82,15517,0,0,0,0,2147121700,2147771236,2147575296,2147567890,3358,2,13,21886
1361958552,5808,996.4299926757812000,43.5147895812988300,574.0031738281250000,4.0510921478271480,55.1460990905761700,54,98,100,78,81,15515,0,0,0,0,2147122404,2147770596,2147574134,2147565659,3549,3,13,18282
1361962152,5809,1007.2600097656250000,42.2545394897460940,572.7987060546875000,4.0885558128356930,55.3139381408691400,54,97,100,79,81,15514,0,0,0,0,2147124534,2147776713,2147577874,2147566994,157,2,13,13410
1361965752,5808,1000.3499755859375000,42.5910911560058600,573.9844970703125000,4.0516738891601560,55.2773704528808600,55,97,99,78,82,15513,0,0,0,0,2147124589,2147774774,2147576310,2147567990,54,2,13,8647
1361969352,5809,1002.5200195312500000,42.1996994018554700,572.8364868164062000,4.0873789787292480,55.3194007873535160,54,99,99,79,82,15512,0,0,0,0,2147123227,2147774162,2147571300,2147567323,3593,2,13,4169
1361972952,5810,999.4400024414062000,41.8101692199707000,573.0390014648438000,4.0810828208923340,55.3829193115234400,55,98,101,80,82,15510,0,0,0,0,2147125202,2147773650,2147575021,2147566336,28,2,13,37332
1361976552,5812,1006.8200073242188000,42.7054214477539060,572.8416137695312000,4.0872211456298830,55.2509307861328100,54,100,101,78,82,15512,0,0,0,0,2147123318,2147770139,2147571382,2147566610,1,3,13,43789
1361980152,5812,1006.3699951171875000,42.2178802490234400,572.8358154296875000,4.0874018669128420,55.3210792541503900,54,100,99,78,82,15510,0,0,0,0,2147122029,2147769261,2147576896,2147564589,162,2,13,53438
1361983752,5810,1012.1699829101562000,42.7495002746582000,572.6571044921875000,4.0929598808288570,55.2403106689453100,53,96,99,78,82,15510,0,0,0,0,2147121481,2147772873,2147577106,2147565558,555,2,13,41437
1361987352,5809,1010.9400024414062000,41.9270401000976560,572.0081176757812000,4.1131401062011720,55.3543205261230500,54,99,99,78,82,15510,0,0,0,0,2147123611,2147773705,2147573238,2147566838,113,2,13,120
1361990952,5810,1013.0599975585938000,41.1012687683105500,572.1953735351562000,4.1073169708251950,55.4715995788574200,54,99,99,77,82,15510,0,0,0,0,2147122861,2147773750,2147574052,2147567232,1468,2,13,33309
1361994552,5810,1016.1699829101562000,41.2901496887207000,571.7595825195312000,4.1208648681640625,55.4422798156738300,55,98,100,78,82,15509,0,0,0,0,2147124242,2147768466,2147576283,2147567579,1000,2,13,20297
1361995856,5809,1012.6099853515625000,41.5041694641113300,571.3521728515625000,4.1335320472717285,55.4052391052246100,54,98,100,78,82,15509,0,0,0,0,2147120000,2147769517,2147573979,2147567158,2076,2,13,256
